Home > Weather > Montego Bay > Past weeks

Flag for Jamaica Past Weather in Montego Bay, Jamaica — Yesterday and Last 2 Weeks

Now
86 °F

Thunderstorms. Scattered clouds.


Feels Like: 97 °F
Forecast: 77 / 88 °F
Wind: 13 mph from Northeast

Location: Montego Bay / Sangster

Current Time: May 26, 2016 at 1:41:10 PM

Latest Report: May 26, 2016 at 1:00 PM


Visibility: N/A

Pressure: 29.92 "Hg

Humidity: 75%

Dew Point: 77 °F

Location of Montego BayLocation

Past Weather in Montego Bay — Graph

°F

Montego Bay Temperature Yesterday

Maximum temperature yesterday: 86 °F (at 10:00 AM)
Minimum temperature yesterday: 73 °F (at 10:00 PM)
Average temperature yesterday: 80 °F

High & Low Weather Summary for the Past Weeks

 TemperatureHumidityPressure
High91 °F (May 18, 1:00 PM)94% (May 14, 5:00 PM)30.04 "Hg (May 14, 5:00 PM)
Low73 °F (May 25, 10:00 PM)58% (May 25, 9:00 AM)29.86 "Hg (May 22, 3:00 PM)
Average82 °F79%29.95 "Hg
* Reported May 11 12:00 PM — May 26 12:00 PM, Montego Bay, Weather by CustomWeather, © 2016

Note: Actual official high and low records may vary slightly from our data, if they occured in-between our weather recording intervals... More about our weather records

Advertising

Montego Bay Weather History for the Previous 24 Hours

Scroll right to see more
 ConditionsComfort  
Time TempWeatherWind HumidityBarometerVisibility
12:00 PM
Thu, May 26
86 °FPassing clouds.10 mph79%29.95 "HgN/A
11:00 AM84 °FPassing clouds.12 mph79%29.95 "HgN/A
10:00 AM84 °FPassing clouds.10 mph79%29.95 "HgN/A
9:00 AM82 °FPassing clouds.8 mph79%29.98 "HgN/A
8:00 AM81 °FScattered clouds.6 mph84%29.98 "HgN/A
7:00 AM79 °FScattered clouds.1 mph84%29.95 "HgN/A
6:00 AM75 °FPassing clouds.2 mph94%29.95 "HgN/A
5:00 AM75 °FPassing clouds.1 mph94%29.95 "HgN/A
4:00 AM73 °FPassing clouds.3 mph94%29.95 "HgN/A
3:00 AM75 °FThundershowers. Passing clouds.2 mph89%29.92 "HgN/A
2:00 AM75 °FThundershowers. Passing clouds.1 mph83%29.95 "HgN/A
1:00 AM75 °FPassing clouds.5 mph83%29.95 "HgN/A
12:00 AM77 °FPassing clouds.6 mph79%29.98 "HgN/A
11:00 PM
Wed, May 25
75 °FSprinkles. Passing clouds.5 mph83%29.98 "HgN/A
10:00 PM73 °FThunderstorms. Passing clouds.9 mph89%30.01 "Hg6 mi
9:00 PM75 °FThunderstorms. Passing clouds.7 mph94%30.04 "Hg4 mi
8:00 PM77 °FThunderstorms. Passing clouds.5 mph89%29.98 "Hg5 mi
7:00 PM77 °FPassing clouds.3 mph94%29.98 "HgN/A
6:00 PM77 °FThunderstorms. Scattered clouds.5 mph94%29.95 "HgN/A
5:00 PM79 °FThunderstorms. Partly sunny.10 mph84%29.95 "Hg4 mi
4:00 PM86 °FScattered clouds.16 mph75%29.92 "HgN/A
3:00 PM86 °FPassing clouds.17 mph75%29.95 "HgN/A
2:00 PM86 °FPassing clouds.15 mph75%29.98 "HgN/A
1:00 PM86 °FPassing clouds.17 mph75%29.98 "HgN/A
Weather by CustomWeather, © 2016

See weather overviewHow to use our weather pages